| time (UTC) | temp F | wind direction | speed knots | gust knots | rain 1hr in | rain 24hr in | rain mn in | humidity % | barometer mb |
| 20260510153512 | 75 | 189 | 0.9 | 3.5 | 0.00 | 0.00 | 0.00 | 50 | 1012.6 |
| 20260510153018 | 74 | 219 | 0.9 | 5.2 | 0.00 | 0.00 | 0.00 | 50 | 1012.5 |
| 20260510152514 | 74 | 167 | 0.0 | 5.2 | 0.00 | 0.00 | 0.00 | 50 | 1012.6 |
| 20260510152008 | 73 | 145 | 1.7 | 4.3 | 0.00 | 0.00 | 0.00 | 51 | 1012.6 |
| 20260510151508 | 73 | 165 | 0.9 | 5.2 | 0.00 | 0.00 | 0.00 | 52 | 1012.6 |
| 20260510151005 | 72 | 348 | 0.0 | 6.1 | 0.00 | 0.00 | 0.00 | 51 | 1012.6 |
| 20260510150504 | 72 | 161 | 0.0 | 6.1 | 0.00 | 0.00 | 0.00 | 52 | 1012.7 |
| 20260510150002 | 72 | 188 | 0.9 | 3.5 | 0.00 | 0.00 | 0.00 | 54 | 1012.8 |
| 20260510145502 | 71 | 184 | 0.9 | 6.1 | 0.00 | 0.00 | 0.00 | 54 | 1012.6 |
| 20260510145001 | 71 | 98 | 0.9 | 6.1 | 0.00 | 0.00 | 0.00 | 55 | 1012.7 |
| 20260510144603 | 70 | 199 | 0.9 | 5.2 | 0.00 | 0.00 | 0.00 | 55 | 1012.8 |
| 20260510144058 | 70 | 152 | 0.9 | 6.1 | 0.00 | 0.00 | 0.00 | 57 | 1012.8 |
| 20260510143556 | 69 | 186 | 2.6 | 6.1 | 0.00 | 0.00 | 0.00 | 57 | 1012.8 |
| 20260510143056 | 69 | 200 | 0.9 | 3.5 | 0.00 | 0.00 | 0.00 | 58 | 1012.8 |
| 20260510142553 | 68 | 24 | 0.0 | 3.5 | 0.00 | 0.00 | 0.00 | 60 | 1012.9 |
| 20260510142052 | 68 | 55 | 0.9 | 3.5 | 0.00 | 0.00 | 0.00 | 61 | 1012.7 |
| 20260510141551 | 67 | 161 | 1.7 | 4.3 | 0.00 | 0.00 | 0.00 | 62 | 1012.8 |
| 20260510141050 | 67 | 333 | 0.0 | 3.5 | 0.00 | 0.00 | 0.00 | 64 | 1012.6 |
| 20260510140547 | 66 | 146 | 0.9 | 3.5 | 0.00 | 0.00 | 0.00 | 65 | 1012.8 |
| 20260510140046 | 65 | 209 | 0.0 | 4.3 | 0.00 | 0.00 | 0.00 | 67 | 1013.0 |
| 20260510135546 | 64 | 162 | 0.9 | 4.3 | 0.00 | 0.00 | 0.00 | 68 | 1013.1 |
| 20260510135045 | 63 | 178 | 0.9 | 4.3 | 0.00 | 0.00 | 0.00 | 71 | 1013.2 |
| 20260510134550 | 62 | 186 | 0.0 | 1.7 | 0.00 | 0.00 | 0.00 | 74 | 1013.0 |
| 20260510134040 | 61 | 181 | 0.0 | 3.5 | 0.00 | 0.00 | 0.00 | 75 | 1013.0 |
| 20260510133541 | 60 | 178 | 0.0 | 3.5 | 0.00 | 0.00 | 0.00 | 77 | 1012.9 |
| 20260510133037 | 59 | 169 | 0.0 | 5.2 | 0.00 | 0.00 | 0.00 | 78 | 1013.1 |
| 20260510132535 | 57 | 166 | 0.9 | 5.2 | 0.00 | 0.00 | 0.00 | 77 | 1013.0 |
| 20260510132034 | 57 | 163 | 0.0 | 5.2 | 0.00 | 0.00 | 0.00 | 74 | 1013.0 |
| 20260510131534 | 56 | 185 | 0.0 | 2.6 | 0.00 | 0.00 | 0.00 | 72 | 1013.2 |
| 20260510131033 | 55 | 195 | 0.0 | 1.7 | 0.00 | 0.00 | 0.00 | 72 | 1013.0 |
| 20260510130532 | 55 | 195 | 0.0 | 1.7 | 0.00 | 0.00 | 0.00 | 73 | 1013.0 |
| 20260510130033 | 54 | 195 | 0.0 | 2.6 | 0.00 | 0.00 | 0.00 | 73 | 1013.0 |
| 20260510125532 | 54 | 195 | 0.0 | 2.6 | 0.00 | 0.00 | 0.00 | 73 | 1012.9 |
| 20260510125030 | 53 | 195 | 0.0 | 2.6 | 0.00 | 0.00 | 0.00 | 73 | 1013.0 |
| 20260510124529 | 52 | 195 | 0.0 | 2.6 | 0.00 | 0.00 | 0.00 | 74 | 1012.9 |
| 20260510124031 | 52 | 195 | 0.0 | 1.7 | 0.00 | 0.00 | 0.00 | 74 | 1013.0 |
| 20260510123529 | 51 | 195 | 0.0 | 0.9 | 0.00 | 0.00 | 0.00 | 74 | 1012.8 |
| 20260510123032 | 51 | 195 | 0.0 | 0.0 | 0.00 | 0.00 | 0.00 | 74 | 1012.8 |
| 20260510122527 | 51 | 195 | 0.0 | 0.0 | 0.00 | 0.00 | 0.00 | 74 | 1012.8 |
| 20260510122030 | 50 | 195 | 0.0 | 0.0 | 0.00 | 0.00 | 0.00 | 74 | 1012.8 |
| 20260510121527 | 50 | 195 | 0.0 | 0.0 | 0.00 | 0.00 | 0.00 | 74 | 1012.8 |
| 20260510121029 | 49 | 195 | 0.0 | 0.0 | 0.00 | 0.00 | 0.00 | 74 | 1012.7 |
| 20260510120527 | 49 | 195 | 0.0 | 0.0 | 0.00 | 0.00 | 0.00 | 74 | 1012.8 |
| 20260510120030 | 49 | 195 | 0.0 | 0.0 | 0.00 | 0.00 | 0.00 | 74 | 1012.8 |
| 20260510115526 | 48 | 195 | 0.0 | 0.0 | 0.00 | 0.00 | 0.00 | 74 | 1012.8 |
| 20260510115025 | 48 | 195 | 0.0 | 0.0 | 0.00 | 0.00 | 0.00 | 74 | 1012.7 |
| 20260510114524 | 48 | 195 | 0.0 | 0.0 | 0.00 | 0.00 | 0.00 | 75 | 1012.6 |
| 20260510114024 | 48 | 195 | 0.0 | 0.0 | 0.00 | 0.00 | 0.00 | 75 | 1012.6 |
| 20260510113523 | 48 | 195 | 0.0 | 0.0 | 0.00 | 0.00 | 0.00 | 75 | 1012.4 |
| 20260510113023 | 47 | 195 | 0.0 | 0.0 | 0.00 | 0.00 | 0.00 | 75 | 1012.7 |
| 20260510112523 | 47 | 195 | 0.0 | 0.0 | 0.00 | 0.00 | 0.00 | 75 | 1012.6 |
| 20260510112023 | 47 | 195 | 0.0 | 0.0 | 0.00 | 0.00 | 0.00 | 75 | 1012.5 |
| 20260510111521 | 47 | 195 | 0.0 | 0.0 | 0.00 | 0.00 | 0.00 | 76 | 1012.3 |
| 20260510111020 | 47 | 195 | 0.0 | 0.0 | 0.00 | 0.00 | 0.00 | 76 | 1012.3 |
| 20260510110524 | 47 | 195 | 0.0 | 0.0 | 0.00 | 0.00 | 0.00 | 76 | 1012.2 |
| 20260510110025 | 47 | 195 | 0.0 | 0.0 | 0.00 | 0.00 | 0.00 | 76 | 1012.0 |
| 20260510105519 | 47 | 195 | 0.0 | 0.0 | 0.00 | 0.00 | 0.00 | 76 | 1012.0 |
| 20260510105018 | 47 | 195 | 0.0 | 0.0 | 0.00 | 0.00 | 0.00 | 76 | 1011.9 |
| 20260510104518 | 47 | 195 | 0.0 | 0.0 | 0.00 | 0.00 | 0.00 | 77 | 1011.8 |
| 20260510104016 | 47 | 195 | 0.0 | 0.0 | 0.00 | 0.00 | 0.00 | 77 | 1011.8 |
| 20260510103516 | 47 | 195 | 0.0 | 0.0 | 0.00 | 0.00 | 0.00 | 77 | 1011.7 |
| 20260510103017 | 47 | 195 | 0.0 | 0.0 | 0.00 | 0.00 | 0.00 | 77 | 1011.7 |
| 20260510102517 | 47 | 195 | 0.0 | 0.0 | 0.00 | 0.00 | 0.00 | 77 | 1011.6 |
| 20260510102015 | 47 | 195 | 0.0 | 0.0 | 0.00 | 0.00 | 0.00 | 77 | 1011.5 |
| 20260510101515 | 47 | 195 | 0.0 | 0.0 | 0.00 | 0.00 | 0.00 | 77 | 1011.6 |
| 20260510101014 | 47 | 195 | 0.0 | 0.0 | 0.00 | 0.00 | 0.00 | 77 | 1011.4 |
| 20260510100514 | 47 | 195 | 0.0 | 0.0 | 0.00 | 0.00 | 0.00 | 77 | 1011.3 |
| 20260510100014 | 47 | 195 | 0.0 | 0.0 | 0.00 | 0.00 | 0.00 | 77 | 1011.3 |
| 20260510095514 | 47 | 195 | 0.0 | 0.0 | 0.00 | 0.00 | 0.00 | 77 | 1011.3 |
| 20260510095013 | 47 | 195 | 0.0 | 0.0 | 0.00 | 0.00 | 0.00 | 77 | 1011.2 |
| 20260510094515 | 47 | 195 | 0.0 | 0.0 | 0.00 | 0.00 | 0.00 | 77 | 1011.5 |
| 20260510094011 | 47 | 195 | 0.0 | 0.0 | 0.00 | 0.00 | 0.00 | 77 | 1011.3 |
| 20260510093515 | 47 | 195 | 0.0 | 0.0 | 0.00 | 0.00 | 0.00 | 77 | 1011.1 |
| 20260510093010 | 47 | 195 | 0.0 | 0.0 | 0.00 | 0.00 | 0.00 | 77 | 1011.0 |
| 20260510092509 | 47 | 195 | 0.0 | 0.0 | 0.00 | 0.00 | 0.00 | 78 | 1010.9 |
| 20260510092009 | 48 | 195 | 0.0 | 0.0 | 0.00 | 0.00 | 0.00 | 78 | 1010.8 |
| 20260510091508 | 48 | 195 | 0.0 | 0.0 | 0.00 | 0.00 | 0.00 | 78 | 1010.9 |
| 20260510091007 | 48 | 195 | 0.0 | 0.0 | 0.00 | 0.00 | 0.00 | 78 | 1010.7 |
| 20260510090507 | 48 | 195 | 0.0 | 0.0 | 0.00 | 0.00 | 0.00 | 78 | 1010.8 |
| 20260510090007 | 48 | 195 | 0.0 | 0.0 | 0.00 | 0.00 | 0.00 | 78 | 1010.7 |
| 20260510085507 | 48 | 195 | 0.0 | 0.0 | 0.00 | 0.00 | 0.00 | 78 | 1010.9 |
| 20260510085008 | 48 | 195 | 0.0 | 0.0 | 0.00 | 0.00 | 0.00 | 78 | 1010.6 |
| 20260510084510 | 48 | 195 | 0.0 | 0.0 | 0.00 | 0.00 | 0.00 | 78 | 1010.7 |
| 20260510084009 | 48 | 195 | 0.0 | 0.0 | 0.00 | 0.00 | 0.00 | 78 | 1010.6 |
| 20260510083504 | 48 | 195 | 0.0 | 0.0 | 0.00 | 0.00 | 0.00 | 78 | 1010.6 |
| 20260510083003 | 49 | 195 | 0.0 | 0.0 | 0.00 | 0.00 | 0.00 | 78 | 1010.6 |
| 20260510082503 | 49 | 195 | 0.0 | 0.0 | 0.00 | 0.00 | 0.00 | 78 | 1010.6 |
| 20260510082005 | 49 | 195 | 0.0 | 0.0 | 0.00 | 0.00 | 0.00 | 78 | 1010.6 |
| 20260510081503 | 49 | 195 | 0.0 | 0.0 | 0.00 | 0.00 | 0.00 | 78 | 1010.7 |
| 20260510081002 | 49 | 195 | 0.0 | 0.0 | 0.00 | 0.00 | 0.00 | 78 | 1010.5 |
| 20260510080502 | 49 | 195 | 0.0 | 0.0 | 0.00 | 0.00 | 0.00 | 78 | 1010.4 |
| 20260510080108 | 49 | 195 | 0.0 | 0.0 | 0.00 | 0.00 | 0.00 | 78 | 1010.4 |
| 20260510075600 | 49 | 195 | 0.0 | 0.0 | 0.00 | 0.00 | 0.00 | 78 | 1010.4 |
| 20260510075102 | 49 | 195 | 0.0 | 0.0 | 0.00 | 0.00 | 0.00 | 78 | 1010.3 |
| 20260510074619 | 50 | 195 | 0.0 | 0.0 | 0.00 | 0.00 | 0.00 | 78 | 1010.1 |
| 20260510074057 | 50 | 195 | 0.0 | 0.0 | 0.00 | 0.00 | 0.00 | 78 | 1010.1 |
| 20260510073556 | 50 | 195 | 0.0 | 0.0 | 0.00 | 0.00 | 0.00 | 78 | 1010.0 |
| 20260510073056 | 50 | 195 | 0.0 | 0.0 | 0.00 | 0.00 | 0.00 | 79 | 1010.1 |
| 20260510072555 | 50 | 195 | 0.0 | 0.0 | 0.00 | 0.00 | 0.00 | 79 | 1010.0 |
| 20260510072058 | 50 | 195 | 0.0 | 0.0 | 0.00 | 0.00 | 0.00 | 79 | 1010.1 |
| 20260510071600 | 51 | 195 | 0.0 | 0.0 | 0.00 | 0.00 | 0.00 | 79 | 1010.0 |
| 20260510071056 | 51 | 195 | 0.0 | 0.0 | 0.00 | 0.00 | 0.00 | 79 | 1010.0 |
| 20260510070553 | 51 | 195 | 0.0 | 0.0 | 0.00 | 0.00 | 0.00 | 79 | 1009.9 |
| 20260510070053 | 51 | 195 | 0.0 | 0.0 | 0.00 | 0.00 | 0.00 | 79 | 1009.9 |
| 20260510065552 | 51 | 195 | 0.0 | 0.0 | 0.00 | 0.00 | 0.00 | 79 | 1009.9 |
| 20260510065052 | 51 | 195 | 0.0 | 0.0 | 0.00 | 0.00 | 0.00 | 79 | 1009.9 |
| 20260510064608 | 51 | 195 | 0.0 | 0.0 | 0.00 | 0.00 | 0.00 | 79 | 1009.9 |
| 20260510064050 | 51 | 195 | 0.0 | 0.0 | 0.00 | 0.00 | 0.00 | 79 | 1009.9 |
| 20260510063551 | 52 | 195 | 0.0 | 0.0 | 0.00 | 0.00 | 0.00 | 79 | 1010.1 |
| 20260510063056 | 52 | 195 | 0.0 | 0.0 | 0.00 | 0.00 | 0.00 | 79 | 1010.0 |
| 20260510062548 | 52 | 195 | 0.0 | 0.0 | 0.00 | 0.00 | 0.00 | 79 | 1010.0 |
| 20260510062048 | 52 | 195 | 0.0 | 0.0 | 0.00 | 0.00 | 0.00 | 79 | 1010.1 |
| 20260510061548 | 52 | 195 | 0.0 | 0.0 | 0.00 | 0.00 | 0.00 | 79 | 1010.0 |
| 20260510061048 | 52 | 195 | 0.0 | 0.0 | 0.00 | 0.00 | 0.00 | 79 | 1010.2 |
| 20260510060548 | 52 | 195 | 0.0 | 0.0 | 0.00 | 0.00 | 0.00 | 79 | 1010.1 |
| 20260510060055 | 52 | 195 | 0.0 | 0.0 | 0.00 | 0.00 | 0.00 | 79 | 1010.1 |
| 20260510055546 | 53 | 195 | 0.0 | 0.0 | 0.00 | 0.00 | 0.00 | 79 | 1010.1 |
| 20260510055045 | 53 | 195 | 0.0 | 0.0 | 0.00 | 0.00 | 0.00 | 79 | 1010.1 |
| 20260510054545 | 53 | 195 | 0.0 | 0.0 | 0.00 | 0.00 | 0.00 | 78 | 1010.0 |
| 20260510054043 | 53 | 195 | 0.0 | 0.9 | 0.00 | 0.00 | 0.00 | 78 | 1010.0 |
| 20260510053543 | 53 | 195 | 0.0 | 0.0 | 0.00 | 0.00 | 0.00 | 78 | 1010.1 |
| 20260510053043 | 53 | 195 | 0.0 | 0.0 | 0.00 | 0.00 | 0.00 | 78 | 1010.1 |
| 20260510052542 | 53 | 195 | 0.0 | 0.0 | 0.00 | 0.00 | 0.00 | 78 | 1010.2 |
| 20260510052042 | 53 | 195 | 0.0 | 0.0 | 0.00 | 0.00 | 0.00 | 78 | 1010.1 |
| 20260510051552 | 54 | 195 | 0.0 | 0.0 | 0.00 | 0.00 | 0.00 | 78 | 1010.1 |
| 20260510051042 | 54 | 195 | 0.0 | 0.0 | 0.00 | 0.00 | 0.00 | 78 | 1010.1 |
| 20260510050540 | 54 | 195 | 0.0 | 0.0 | 0.00 | 0.00 | 0.00 | 77 | 1010.1 |
| 20260510050040 | 54 | 195 | 0.0 | 0.0 | 0.00 | 0.00 | 0.00 | 77 | 1010.1 |
| 20260510045541 | 54 | 195 | 0.0 | 0.0 | 0.00 | 0.00 | 0.00 | 77 | 1010.2 |
| 20260510045038 | 55 | 195 | 0.0 | 0.0 | 0.00 | 0.00 | 0.00 | 77 | 1010.1 |
| 20260510044541 | 55 | 195 | 0.0 | 0.0 | 0.00 | 0.00 | 0.00 | 76 | 1010.1 |
| 20260510044036 | 55 | 195 | 0.0 | 0.0 | 0.00 | 0.00 | 0.00 | 76 | 1009.9 |
| 20260510043536 | 55 | 195 | 0.0 | 0.0 | 0.00 | 0.00 | 0.00 | 76 | 1010.0 |
| 20260510043044 | 55 | 195 | 0.0 | 0.0 | 0.00 | 0.00 | 0.00 | 76 | 1010.0 |
| 20260510042534 | 55 | 195 | 0.0 | 0.0 | 0.00 | 0.00 | 0.00 | 76 | 1010.1 |
| 20260510042034 | 55 | 195 | 0.0 | 0.0 | 0.00 | 0.00 | 0.00 | 76 | 1010.0 |
| 20260510041540 | 55 | 195 | 0.0 | 0.0 | 0.00 | 0.00 | 0.00 | 76 | 1010.0 |
| 20260510041033 | 56 | 195 | 0.0 | 0.0 | 0.00 | 0.00 | 0.00 | 76 | 1009.7 |
| 20260510040532 | 56 | 195 | 0.0 | 0.0 | 0.00 | 0.00 | 0.00 | 75 | 1009.8 |
| 20260510040030 | 56 | 195 | 0.0 | 0.9 | 0.00 | 0.00 | 0.00 | 75 | 1009.9 |
| 20260510035533 | 56 | 195 | 0.0 | 0.9 | 0.00 | 0.00 | 0.00 | 75 | 1009.9 |
| 20260510035030 | 56 | 195 | 0.0 | 0.0 | 0.00 | 0.00 | 0.00 | 74 | 1009.9 |
| 20260510034530 | 56 | 195 | 0.0 | 0.9 | 0.00 | 0.00 | 0.00 | 74 | 1009.9 |
| 20260510034028 | 56 | 195 | 0.0 | 0.9 | 0.00 | 0.00 | 0.00 | 74 | 1009.8 |
| 20260510033532 | 57 | 195 | 0.0 | 0.9 | 0.00 | 0.00 | 0.00 | 74 | 1009.7 |
| 20260510033030 | 57 | 195 | 0.0 | 0.9 | 0.00 | 0.00 | 0.00 | 74 | 1009.7 |
| 20260510032529 | 57 | 195 | 0.0 | 0.9 | 0.00 | 0.00 | 0.00 | 73 | 1009.6 |
| 20260510032029 | 57 | 195 | 0.0 | 0.9 | 0.00 | 0.00 | 0.00 | 73 | 1009.5 |
| 20260510031529 | 57 | 195 | 0.0 | 0.9 | 0.00 | 0.00 | 0.00 | 73 | 1009.7 |
| 20260510031028 | 57 | 195 | 0.0 | 0.9 | 0.00 | 0.00 | 0.00 | 73 | 1009.5 |
| 20260510030531 | 58 | 195 | 0.0 | 0.9 | 0.00 | 0.00 | 0.00 | 72 | 1009.6 |
| 20260510030028 | 58 | 195 | 0.0 | 0.9 | 0.00 | 0.00 | 0.00 | 72 | 1009.6 |
| 20260510025528 | 58 | 195 | 0.0 | 0.9 | 0.00 | 0.00 | 0.00 | 71 | 1009.4 |
| 20260510025028 | 58 | 195 | 0.0 | 0.9 | 0.00 | 0.00 | 0.00 | 71 | 1009.6 |
| 20260510024528 | 58 | 195 | 0.0 | 0.9 | 0.00 | 0.00 | 0.00 | 71 | 1009.4 |
| 20260510024027 | 58 | 195 | 0.0 | 0.9 | 0.00 | 0.00 | 0.00 | 70 | 1009.2 |
| 20260510023527 | 59 | 195 | 0.0 | 0.9 | 0.00 | 0.00 | 0.00 | 70 | 1009.3 |
| 20260510023027 | 59 | 195 | 0.0 | 0.9 | 0.00 | 0.00 | 0.00 | 69 | 1009.3 |
| 20260510022527 | 59 | 195 | 0.0 | 0.0 | 0.00 | 0.00 | 0.00 | 69 | 1009.2 |
| 20260510022027 | 59 | 195 | 0.0 | 0.0 | 0.00 | 0.00 | 0.00 | 67 | 1009.1 |
| 20260510021529 | 60 | 195 | 0.0 | 0.9 | 0.00 | 0.00 | 0.00 | 67 | 1009.0 |
| 20260510021026 | 60 | 195 | 0.0 | 0.9 | 0.00 | 0.00 | 0.00 | 67 | 1008.8 |
| 20260510020527 | 60 | 195 | 0.0 | 0.9 | 0.00 | 0.00 | 0.00 | 66 | 1008.8 |
| 20260510020027 | 60 | 195 | 0.0 | 0.0 | 0.00 | 0.00 | 0.00 | 66 | 1008.8 |
| 20260510015527 | 61 | 195 | 0.0 | 0.9 | 0.00 | 0.00 | 0.00 | 65 | 1008.7 |
| 20260510015027 | 61 | 195 | 0.0 | 0.9 | 0.00 | 0.00 | 0.00 | 65 | 1008.7 |
| 20260510014528 | 61 | 195 | 0.0 | 0.9 | 0.00 | 0.00 | 0.00 | 64 | 1008.6 |
| 20260510014026 | 62 | 195 | 0.0 | 0.9 | 0.00 | 0.00 | 0.00 | 63 | 1008.4 |
| 20260510013526 | 62 | 195 | 0.0 | 0.0 | 0.00 | 0.00 | 0.00 | 62 | 1008.3 |
| 20260510013028 | 62 | 195 | 0.0 | 0.0 | 0.00 | 0.00 | 0.00 | 62 | 1008.2 |
| 20260510012526 | 63 | 195 | 0.0 | 0.0 | 0.00 | 0.00 | 0.00 | 60 | 1008.1 |
| 20260510012025 | 63 | 195 | 0.0 | 0.0 | 0.00 | 0.00 | 0.00 | 59 | 1008.1 |
| 20260510011534 | 64 | 195 | 0.0 | 0.0 | 0.00 | 0.00 | 0.00 | 58 | 1008.0 |
| 20260510011025 | 64 | 195 | 0.0 | 0.0 | 0.00 | 0.00 | 0.00 | 56 | 1008.0 |
| 20260510010525 | 65 | 195 | 0.0 | 0.0 | 0.00 | 0.00 | 0.00 | 55 | 1007.9 |
| 20260510010035 | 65 | 195 | 0.0 | 0.0 | 0.00 | 0.00 | 0.00 | 54 | 1007.8 |
| 20260510005525 | 65 | 195 | 0.0 | 0.0 | 0.00 | 0.00 | 0.00 | 54 | 1007.8 |
| 20260510005025 | 66 | 195 | 0.0 | 0.0 | 0.00 | 0.00 | 0.00 | 52 | 1007.7 |
| 20260510004525 | 67 | 195 | 0.0 | 0.0 | 0.00 | 0.00 | 0.00 | 51 | 1007.7 |
| 20260510004027 | 67 | 195 | 0.0 | 0.0 | 0.00 | 0.00 | 0.00 | 50 | 1007.7 |
| 20260510003525 | 68 | 195 | 0.0 | 0.0 | 0.00 | 0.00 | 0.00 | 51 | 1007.7 |
| 20260510003025 | 68 | 195 | 0.0 | 0.0 | 0.00 | 0.00 | 0.00 | 48 | 1007.6 |
| 20260510002524 | 68 | 195 | 0.0 | 0.9 | 0.00 | 0.00 | 0.00 | 49 | 1007.7 |
| 20260510002023 | 69 | 195 | 0.0 | 0.9 | 0.00 | 0.00 | 0.00 | 47 | 1007.6 |
| 20260510001526 | 70 | 195 | 0.0 | 0.9 | 0.00 | 0.00 | 0.00 | 47 | 1007.6 |
| 20260510001024 | 70 | 195 | 0.0 | 0.9 | 0.00 | 0.00 | 0.00 | 45 | 1007.5 |
| 20260510000524 | 71 | 195 | 0.0 | 1.7 | 0.00 | 0.00 | 0.00 | 43 | 1007.4 |
| 20260510000024 | 71 | 195 | 0.0 | 2.6 | 0.00 | 0.00 | 0.00 | 42 | 1007.3 |
| 20260509235524 | 71 | 196 | 0.0 | 2.6 | 0.00 | 0.00 | 0.00 | 42 | 1007.1 |
| 20260509235023 | 72 | 289 | 0.0 | 2.6 | 0.00 | 0.00 | 0.00 | 42 | 1007.1 |
| 20260509234525 | 72 | 169 | 0.0 | 3.5 | 0.00 | 0.00 | 0.00 | 43 | 1007.0 |
| 20260509234023 | 72 | 138 | 0.0 | 3.5 | 0.00 | 0.00 | 0.00 | 41 | 1006.9 |
| 20260509233522 | 73 | 84 | 0.0 | 1.7 | 0.00 | 0.00 | 0.00 | 41 | 1006.8 |
| 20260509233022 | 73 | 82 | 0.0 | 2.6 | 0.00 | 0.00 | 0.00 | 39 | 1006.8 |
| 20260509232526 | 73 | 86 | 0.0 | 2.6 | 0.00 | 0.00 | 0.00 | 40 | 1006.7 |
| 20260509232022 | 73 | 44 | 0.0 | 2.6 | 0.00 | 0.00 | 0.00 | 41 | 1006.7 |
| 20260509231529 | 74 | 46 | 0.9 | 2.6 | 0.00 | 0.00 | 0.00 | 39 | 1006.7 |
| 20260509231022 | 74 | 168 | 0.0 | 3.5 | 0.00 | 0.00 | 0.00 | 40 | 1006.7 |
| 20260509230522 | 74 | 223 | 0.0 | 1.7 | 0.00 | 0.00 | 0.00 | 40 | 1006.5 |
| 20260509230024 | 75 | 5 | 0.0 | 1.7 | 0.00 | 0.00 | 0.00 | 41 | 1006.3 |
| 20260509225521 | 75 | 5 | 0.0 | 3.5 | 0.00 | 0.00 | 0.00 | 41 | 1006.2 |
| 20260509225024 | 75 | 5 | 0.9 | 3.5 | 0.00 | 0.00 | 0.00 | 40 | 1006.3 |
| 20260509224521 | 75 | 34 | 0.0 | 2.6 | 0.00 | 0.00 | 0.00 | 40 | 1006.4 |
| 20260509224021 | 76 | 138 | 0.0 | 2.6 | 0.00 | 0.00 | 0.00 | 40 | 1006.4 |
| 20260509223521 | 76 | 347 | 0.0 | 1.7 | 0.00 | 0.00 | 0.00 | 42 | 1006.4 |
| 20260509223022 | 76 | 347 | 0.0 | 3.5 | 0.00 | 0.00 | 0.00 | 42 | 1006.3 |
| 20260509222520 | 76 | 164 | 0.9 | 6.1 | 0.00 | 0.00 | 0.00 | 39 | 1006.3 |
| 20260509222020 | 76 | 28 | 1.7 | 6.1 | 0.00 | 0.00 | 0.00 | 40 | 1006.4 |
| 20260509221531 | 77 | 98 | 0.0 | 4.3 | 0.00 | 0.00 | 0.00 | 42 | 1006.4 |
| 20260509221020 | 76 | 125 | 0.9 | 4.3 | 0.00 | 0.00 | 0.00 | 39 | 1006.4 |
| 20260509220519 | 76 | 23 | 0.9 | 4.3 | 0.00 | 0.00 | 0.00 | 39 | 1006.3 |
| 20260509220022 | 76 | 315 | 0.9 | 3.5 | 0.00 | 0.00 | 0.00 | 39 | 1006.3 |
| 20260509215519 | 77 | 184 | 0.0 | 3.5 | 0.00 | 0.00 | 0.00 | 40 | 1006.2 |
| 20260509215019 | 77 | 184 | 0.0 | 6.1 | 0.00 | 0.00 | 0.00 | 38 | 1006.2 |
| 20260509214518 | 77 | 23 | 0.9 | 6.1 | 0.00 | 0.00 | 0.00 | 38 | 1006.2 |
| 20260509214018 | 77 | 315 | 0.0 | 2.6 | 0.00 | 0.00 | 0.00 | 39 | 1006.2 |
| 20260509213518 | 77 | 5 | 0.0 | 2.6 | 0.00 | 0.00 | 0.00 | 38 | 1006.2 |
| 20260509213018 | 77 | 202 | 0.0 | 2.6 | 0.00 | 0.00 | 0.00 | 38 | 1006.1 |
| 20260509212521 | 77 | 196 | 0.9 | 4.3 | 0.00 | 0.00 | 0.00 | 38 | 1005.9 |
| 20260509212018 | 77 | 153 | 0.9 | 4.3 | 0.00 | 0.00 | 0.00 | 37 | 1006.0 |
| 20260509211518 | 77 | 132 | 0.9 | 2.6 | 0.00 | 0.00 | 0.00 | 38 | 1006.1 |
| 20260509211018 | 77 | 102 | 0.0 | 7.0 | 0.00 | 0.00 | 0.00 | 38 | 1005.9 |
| 20260509210520 | 77 | 167 | 0.9 | 7.0 | 0.00 | 0.00 | 0.00 | 37 | 1005.8 |
| 20260509210018 | 77 | 152 | 0.0 | 4.3 | 0.00 | 0.00 | 0.00 | 37 | 1005.8 |
| 20260509205516 | 77 | 127 | 0.9 | 4.3 | 0.00 | 0.00 | 0.00 | 36 | 1005.9 |
| 20260509205017 | 77 | 139 | 0.9 | 6.1 | 0.00 | 0.00 | 0.00 | 36 | 1005.8 |
| 20260509204518 | 78 | 72 | 1.7 | 6.1 | 0.00 | 0.00 | 0.00 | 37 | 1005.8 |
| 20260509204016 | 78 | 184 | 0.0 | 7.0 | 0.00 | 0.00 | 0.00 | 38 | 1005.8 |
| 20260509203515 | 78 | 360 | 1.7 | 7.0 | 0.00 | 0.00 | 0.00 | 36 | 1005.7 |
| 20260509203017 | 78 | 140 | 0.9 | 4.3 | 0.00 | 0.00 | 0.00 | 37 | 1005.7 |
| 20260509202515 | 78 | 161 | 0.0 | 4.3 | 0.00 | 0.00 | 0.00 | 36 | 1005.7 |
| 20260509202015 | 78 | 162 | 1.7 | 4.3 | 0.00 | 0.00 | 0.00 | 36 | 1005.7 |
| 20260509201515 | 79 | 90 | 0.0 | 5.2 | 0.00 | 0.00 | 0.00 | 38 | 1005.7 |
| 20260509201016 | 79 | 86 | 1.7 | 5.2 | 0.00 | 0.00 | 0.00 | 36 | 1005.8 |
| 20260509200514 | 79 | 219 | 0.9 | 4.3 | 0.00 | 0.00 | 0.00 | 37 | 1005.7 |
| 20260509200014 | 78 | 204 | 1.7 | 5.2 | 0.00 | 0.00 | 0.00 | 37 | 1005.7 |
| 20260509195513 | 78 | 209 | 0.0 | 6.1 | 0.00 | 0.00 | 0.00 | 37 | 1005.8 |
| 20260509195014 | 78 | 146 | 0.9 | 6.1 | 0.00 | 0.00 | 0.00 | 37 | 1005.8 |
| 20260509194516 | 78 | 123 | 0.9 | 5.2 | 0.00 | 0.00 | 0.00 | 36 | 1005.9 |
| 20260509194012 | 79 | 140 | 0.9 | 4.3 | 0.00 | 0.00 | 0.00 | 36 | 1006.0 |
| 20260509193514 | 80 | 38 | 0.9 | 3.5 | 0.00 | 0.00 | 0.00 | 35 | 1005.9 |
| 20260509193012 | 80 | 130 | 0.9 | 6.1 | 0.00 | 0.00 | 0.00 | 34 | 1005.8 |
| 20260509192512 | 80 | 143 | 0.9 | 6.1 | 0.00 | 0.00 | 0.00 | 35 | 1005.9 |
| 20260509192020 | 81 | 308 | 0.9 | 3.5 | 0.00 | 0.00 | 0.00 | 36 | 1005.7 |
| 20260509191511 | 81 | 182 | 0.9 | 4.3 | 0.00 | 0.00 | 0.00 | 34 | 1005.9 |
| 20260509191011 | 81 | 169 | 0.0 | 4.3 | 0.00 | 0.00 | 0.00 | 36 | 1006.0 |
| 20260509190510 | 80 | 202 | 0.0 | 2.6 | 0.00 | 0.00 | 0.00 | 35 | 1006.0 |
| 20260509190012 | 80 | 203 | 0.0 | 1.7 | 0.00 | 0.00 | 0.00 | 36 | 1006.2 |
| 20260509185513 | 80 | 94 | 0.9 | 3.5 | 0.00 | 0.00 | 0.00 | 34 | 1006.1 |
| 20260509185009 | 80 | 12 | 0.0 | 3.5 | 0.00 | 0.00 | 0.00 | 36 | 1006.1 |
| 20260509184521 | 80 | 336 | 0.9 | 3.5 | 0.00 | 0.00 | 0.00 | 35 | 1006.0 |
| 20260509184006 | 80 | 142 | 1.7 | 3.5 | 0.00 | 0.00 | 0.00 | 37 | 1006.1 |
| 20260509183505 | 80 | 149 | 0.0 | 2.6 | 0.00 | 0.00 | 0.00 | 40 | 1006.2 |
| 20260509183005 | 80 | 173 | 0.0 | 2.6 | 0.00 | 0.00 | 0.00 | 42 | 1006.3 |
| 20260509182504 | 79 | 173 | 0.9 | 3.5 | 0.00 | 0.00 | 0.00 | 45 | 1006.5 |
| 20260509182002 | 79 | 173 | 1.7 | 3.5 | 0.00 | 0.00 | 0.00 | 43 | 1006.4 |
| 20260509181501 | 79 | 207 | 0.9 | 2.6 | 0.00 | 0.00 | 0.00 | 45 | 1006.6 |
| 20260509181100 | 78 | 209 | 0.9 | 2.6 | 0.00 | 0.00 | 0.00 | 41 | 1006.5 |
| 20260509180600 | 78 | 236 | 0.0 | 4.3 | 0.00 | 0.00 | 0.00 | 42 | 1006.7 |
| 20260509180058 | 78 | 174 | 1.7 | 4.3 | 0.00 | 0.00 | 0.00 | 44 | 1006.7 |
| 20260509175557 | 77 | 134 | 0.9 | 4.3 | 0.00 | 0.00 | 0.00 | 46 | 1006.9 |
| 20260509175056 | 77 | 271 | 0.0 | 2.6 | 0.00 | 0.00 | 0.00 | 47 | 1007.0 |
| 20260509174554 | 76 | 140 | 0.0 | 2.6 | 0.00 | 0.00 | 0.00 | 49 | 1006.9 |
| 20260509174055 | 76 | 127 | 0.9 | 2.6 | 0.00 | 0.00 | 0.00 | 48 | 1007.0 |
| 20260509173552 | 76 | 191 | 0.9 | 2.6 | 0.00 | 0.00 | 0.00 | 48 | 1007.0 |
| 20260509173058 | 75 | 192 | 0.0 | 2.6 | 0.00 | 0.00 | 0.00 | 49 | 1007.0 |
| 20260509172552 | 75 | 192 | 0.0 | 2.6 | 0.00 | 0.00 | 0.00 | 50 | 1007.1 |
| 20260509172050 | 75 | 192 | 0.0 | 2.6 | 0.00 | 0.00 | 0.00 | 51 | 1007.2 |
| 20260509171604 | 74 | 200 | 0.0 | 3.5 | 0.00 | 0.00 | 0.00 | 53 | 1007.2 |
| 20260509171047 | 73 | 173 | 0.9 | 3.5 | 0.00 | 0.00 | 0.00 | 54 | 1007.3 |
| 20260509170546 | 73 | 146 | 0.9 | 2.6 | 0.00 | 0.00 | 0.00 | 54 | 1007.3 |
| 20260509170046 | 73 | 146 | 0.9 | 2.6 | 0.00 | 0.00 | 0.00 | 53 | 1007.6 |
| 20260509165545 | 73 | 146 | 0.0 | 1.7 | 0.00 | 0.00 | 0.00 | 55 | 1007.6 |
| 20260509165045 | 73 | 146 | 0.0 | 2.6 | 0.00 | 0.00 | 0.00 | 54 | 1007.6 |
| 20260509164549 | 73 | 146 | 0.0 | 2.6 | 0.00 | 0.00 | 0.00 | 54 | 1007.8 |
| 20260509164047 | 73 | 146 | 0.0 | 1.7 | 0.00 | 0.00 | 0.00 | 54 | 1007.9 |
| 20260509163544 | 73 | 168 | 0.0 | 2.6 | 0.00 | 0.00 | 0.00 | 53 | 1007.9 |
| 20260509163050 | 73 | 168 | 0.0 | 2.6 | 0.00 | 0.00 | 0.00 | 54 | 1007.9 |
| 20260509162546 | 73 | 141 | 0.0 | 4.3 | 0.00 | 0.00 | 0.00 | 54 | 1007.9 |
| 20260509162041 | 73 | 141 | 0.0 | 4.3 | 0.00 | 0.00 | 0.00 | 55 | 1008.0 |
| 20260509161539 | 72 | 121 | 0.9 | 6.1 | 0.00 | 0.00 | 0.00 | 57 | 1007.9 |
| 20260509161037 | 71 | 154 | 1.7 | 6.1 | 0.00 | 0.00 | 0.00 | 58 | 1007.9 |
| 20260509160536 | 70 | 159 | 0.0 | 4.3 | 0.00 | 0.00 | 0.00 | 58 | 1007.9 |
| 20260509160036 | 69 | 320 | 0.0 | 3.5 | 0.00 | 0.00 | 0.00 | 58 | 1007.8 |
| 20260509155533 | 69 | 142 | 0.9 | 3.5 | 0.00 | 0.00 | 0.00 | 61 | 1007.8 |
| 20260509155032 | 68 | 142 | 0.9 | 3.5 | 0.00 | 0.00 | 0.00 | 61 | 1007.9 |
| 20260509154530 | 67 | 121 | 0.9 | 3.5 | 0.00 | 0.00 | 0.00 | 61 | 1007.8 |
| 20260509154029 | 67 | 114 | 0.9 | 2.6 | 0.00 | 0.00 | 0.00 | 62 | 1007.9 |